Wind_Speed
7 8 9 8 10 11 13 14 15 17 18 16 14 16 19 18 17 15 16 15 15 17 18 18 19 19 20 20 19 19 19 20 17 23 20 28 22 25 27 33 31 24 27 30 30
7 8 8 9 9 10 11 12 13 15 18 19 19 19 18 17 17 17 17 17 18 18 19 21 22 22 23 23 23 22 22 22 28 29 28 32 28 24 25 27 31 27 24 29 35
6 6 9 8 9 10 10 10 11 11 14 17 19 19 19 20 21 21 20 19 18 19 20 20 21 23 24 24 25 24 24 27 29 31 31 29 31 24 21 26 30 32 36 30 35
6 6 7 10 9 9 9 10 10 10 10 11 12 16 18 18 17 19 19 19 18 18 18 19 20 21 23 25 26 27 28 31 32 33 30 32 24 22 21 24 27 32 33 35 35
5 5 6 7 10 10 10 10 10 12 12 11 11 11 12 14 15 14 15 16 16 17 17 18 18 20 23 24 26 29 34 33 35 35 33 34 31 26 26 28 31 36 35 39 42
6 6 5 6 7 10 11 12 11 11 12 14 14 15 15 15 15 15 15 15 16 16 15 16 17 19 20 22 24 23 29 32 34 33 36 35 33 27 28 27 30 39 35 36 41
6 6 5 5 4 6 8 10 12 12 13 13 15 16 15 15 15 15 15 15 14 14 14 14 14 14 14 15 15 16 18 22 28 29 31 32 32 32 28 24 24 25 35 30 41
8 7 6 5 4 4 5 7 9 11 12 12 12 14 16 15 15 14 14 13 13 12 12 12 11 11 10 10 10 12 11 12 19 19 26 24 22 32 29 24 20 23 32 30 29
10 9 8 6 6 6 6 6 7 9 9 10 11 11 12 13 13 13 12 12 11 11 11 10 8 8 6 7 8 7 5 9 17 16 22 22 24 25 25 18 19 22 24 24 28
13 12 11 8 7 8 8 8 8 8 9 9 9 9 10 11 11 11 12 12 11 11 10 9 8 6 5 4 3 8 10 11 9 19 23 28 27 26 22 22 25 26 29 27 27
14 14 12 11 10 10 9 9 9 9 10 10 10 10 11 11 12 12 12 12 11 11 10 9 9 8 8 7 5 5 8 13 16 20 21 23 23 23 25 26 27 31 30 28 28
15 14 13 12 12 13 11 10 11 11 11 10 10 10 11 11 12 12 12 11 11 11 11 10 11 10 11 10 9 8 8 12 17 17 19 19 22 23 26 29 30 27 31 36 34
16 16 14 13 13 14 12 11 11 10 11 11 11 11 11 10 10 10 10 10 10 10 11 12 12 12 13 12 12 13 13 14 15 17 20 19 24 26 28 30 32 28 24 29 32
17 15 15 14 15 15 13 12 11 11 10 11 12 11 10 10 9 9 9 11 11 13 13 13 13 13 14 15 13 15 17 18 20 19 15 19 20 27 25 28 29 28 25 29 35
17 16 14 14 14 15 15 13 11 11 10 11 10 10 10 10 11 12 12 12 13 14 13 16 15 14 15 15 14 18 17 18 19 18 20 24 23 34 26 28 28 27 27 29 34
17 17 14 14 14 14 15 14 12 12 13 11 11 10 10 11 12 12 13 14 15 15 16 17 17 16 16 15 15 16 17 20 22 19 22 24 30 33 34 31 32 33 33 32 31
18 18 16 16 15 13 14 14 13 13 12 12 12 11 10 11 11 12 14 15 17 16 17 18 18 17 15 15 14 15 17 13 16 17 19 29 31 35 36 35 35 36 39 38 40
11 14 15 18 18 14 14 14 15 14 14 12 12 12 11 12 13 13 14 15 18 17 17 17 17 17 15 15 15 16 17 14 16 15 18 28 25 30 28 29 31 33 32 33 35
7 9 13 14 18 16 15 16 16 16 13 12 11 12 12 11 12 12 13 13 15 14 15 17 20 18 15 15 15 19 17 22 21 22 23 22 24 24 21 21 23 25 27 25 25
11 9 9 12 15 17 18 18 18 16 15 13 14 13 14 13 13 14 15 13 14 15 17 18 19 18 16 15 16 16 20 20 17 18 16 21 26 24 22 22 22 23 25 26 28
16 13 10 10 13 17 19 20 20 18 18 17 17 16 17 17 16 16 16 15 15 14 19 21 21 25 19 15 18 21 20 18 21 24 20 17 19 30 24 26 26 27 27 29 32
16 17 15 12 13 14 17 18 19 19 19 19 19 19 19 19 19 19 18 19 18 18 18 20 22 21 20 18 20 22 19 19 21 19 22 23 26 29 28 29 29 30 31 33 36
18 17 16 17 15 15 16 18 18 18 19 19 19 20 20 22 23 22 20 20 21 21 22 20 20 21 20 19 18 20 18 18 19 21 22 25 26 30 28 29 30 31 32 35 37
17 19 18 18 20 19 18 18 19 19 20 20 20 21 22 23 24 24 23 22 22 24 24 20 19 19 18 18 18 19 18 18 19 19 20 23 28 25 28 30 32 35 37 38 40
20 18 19 20 20 21 22 20 21 22 21 21 21 22 23 24 25 25 24 24 23 23 22 20 19 18 17 18 18 20 21 20 20 21 22 25 27 30 31 34 36 37 37 39 40
25 22 19 20 21 23 24 24 23 24 25 25 25 24 24 24 25 25 24 23 23 21 19 20 20 19 18 20 21 21 22 24 23 24 25 27 31 31 34 37 37 35 36 37 38
29 27 25 22 22 24 25 25 27 26 27 27 27 27 27 26 27 26 26 24 22 21 20 21 22 20 20 21 24 25 24 24 25 26 28 30 32 33 34 34 33 33 33 34 32
Wind_Direction
262 257 250 250 246 242 239 240 239 234 226 228 226 226 227 234 243 247 243 242 238 237 242 247 248 250 253 254 255 257 260 263 253 267 260 277 261 239 239 241 245 248 247 246 243
262 256 256 251 248 245 240 239 238 237 233 232 234 234 234 235 239 247 249 246 245 244 246 250 255 257 258 258 259 259 259 261 254 267 266 274 270 269 247 245 245 244 235 243 229
287 269 256 258 252 250 247 243 241 239 237 237 238 239 241 242 244 246 248 249 250 252 253 257 261 262 264 264 266 265 264 259 264 264 266 270 276 272 266 248 239 243 243 244 239
301 284 271 254 255 254 253 250 243 239 236 238 240 240 241 241 241 243 246 248 248 247 249 251 255 259 262 265 268 267 262 261 263 261 263 265 260 266 248 260 250 243 244 241 239
322 308 284 267 254 253 250 251 250 245 241 237 234 232 231 232 234 239 240 243 246 248 250 256 259 261 262 262 263 261 263 259 259 261 258 260 263 257 245 242 248 240 238 239 239
332 328 308 283 266 255 254 247 248 248 244 239 237 236 238 240 239 240 244 247 249 253 255 256 260 260 263 265 267 270 265 262 257 257 258 256 257 255 257 256 247 245 269 244 242
321 320 324 309 292 262 255 252 247 246 243 240 238 237 237 239 239 241 244 245 247 250 254 260 265 265 269 269 276 282 268 263 255 251 251 251 254 267 261 246 254 257 267 256 265
299 301 304 304 291 274 248 245 245 248 249 246 246 244 242 241 243 242 243 244 246 251 260 266 269 272 277 290 304 305 285 270 256 249 255 257 256 256 263 261 262 256 257 268 269
284 283 284 288 285 267 256 249 248 248 248 243 241 243 247 246 244 243 242 242 246 254 261 267 272 272 282 306 319 333 255 239 269 260 262 257 239 256 263 256 244 237 260 272 273
282 278 273 269 271 270 262 257 255 253 253 250 244 242 241 242 242 240 239 241 245 253 261 270 269 267 275 298 281 296 254 245 244 269 267 264 261 256 252 253 257 265 258 260 264
278 274 272 266 261 264 262 263 261 259 258 258 254 248 243 244 245 244 245 249 250 254 260 263 264 266 257 262 266 287 255 256 270 275 270 270 263 258 246 251 255 259 265 268 266
277 273 268 267 262 260 261 261 260 260 258 257 254 249 248 248 248 248 248 248 246 248 254 258 259 266 263 266 273 273 276 266 270 276 276 272 262 258 255 250 256 272 278 264 268
277 274 272 265 260 262 262 262 264 263 263 258 258 258 257 251 247 247 244 240 245 254 256 256 268 267 270 270 272 276 270 265 258 279 272 271 264 261 261 264 269 271 276 269 259
280 277 273 271 261 254 254 256 261 262 263 264 263 257 258 251 250 255 254 252 252 256 260 266 270 267 266 265 263 272 266 267 268 271 281 275 261 275 268 273 277 279 274 274 267
274 276 274 269 265 259 252 251 255 259 263 264 268 267 263 264 269 265 265 265 257 261 266 269 273 275 269 264 259 258 263 264 268 270 257 272 265 267 265 268 273 279 280 279 275
268 270 267 266 261 258 253 248 249 252 261 267 270 274 272 274 275 274 276 270 266 266 266 271 274 275 274 267 269 269 268 266 264 260 263 260 264 272 271 270 270 270 273 273 273
262 257 254 251 249 254 250 244 244 249 259 265 267 267 265 273 279 285 284 278 271 271 269 272 273 270 267 272 273 279 282 282 275 274 281 260 261 256 270 272 267 266 267 269 267
258 257 256 247 243 243 239 239 241 246 255 259 259 256 260 270 277 279 285 284 277 273 272 266 279 266 263 269 274 282 283 270 269 268 265 273 272 278 277 275 267 264 266 261 266
302 273 258 251 248 240 235 230 233 244 251 251 250 256 260 256 260 265 267 272 278 280 269 266 262 267 270 276 285 290 285 284 281 281 280 270 285 280 276 272 269 266 266 265 263
294 291 277 250 249 244 239 237 231 231 235 239 247 252 255 252 247 259 263 262 266 272 274 270 273 270 273 281 286 287 286 284 289 277 277 284 289 285 286 282 279 278 273 273 274
272 277 279 263 251 247 245 243 243 238 237 241 247 252 254 258 253 254 259 266 269 268 265 266 267 277 279 280 287 291 285 274 270 274 276 279 281 286 291 289 288 285 283 280 279
271 265 263 266 260 253 248 248 249 248 246 246 251 254 252 256 257 258 263 267 271 271 272 271 268 269 274 283 291 291 286 277 276 277 279 279 278 281 292 292 291 290 288 287 287
269 267 262 255 256 256 252 248 250 248 246 245 246 250 253 257 263 264 266 267 272 277 278 273 264 265 272 285 292 292 287 281 279 278 280 283 280 291 293 293 293 293 293 292 292
269 270 263 256 251 253 252 250 249 248 247 245 245 247 250 253 260 265 268 270 272 277 276 271 260 260 277 287 295 292 289 289 288 289 290 290 292 293 297 296 296 295 294 294 294
269 271 269 262 253 249 249 247 244 245 246 245 241 242 245 250 256 263 267 271 271 273 272 263 253 261 272 283 293 291 288 289 292 297 296 292 291 296 297 299 300 299 300 299 297
265 266 268 268 257 252 249 249 245 245 246 247 245 243 242 249 255 259 263 268 272 267 259 253 256 267 274 284 294 298 292 287 289 296 298 297 294 298 299 300 301 302 298 296 297
260 261 264 266 263 255 251 249 249 246 247 249 248 248 246 246 249 252 256 260 261 258 253 254 263 270 280 285 292 299 294 289 288 291 297 297 300 301 300 302 303 298 298 300 298
Height
5862 5862 5862 5862 5862 5863 5863 5864 5865 5866 5867 5869 5871 5872 5874 5876 5877 5878 5879 5880 5882 5883 5884 5885 5887 5888 5890 5892 5894 5896 5898 5898 5899 5897 5898 5898 5905 5908 5910 5910 5911 5913 5913 5914 5912
5861 5860 5860 5860 5861 5861 5861 5862 5862 5863 5864 5866 5868 5869 5871 5872 5874 5875 5876 5877 5879 5880 5881 5882 5883 5885 5886 5887 5889 5892 5893 5894 5891 5892 5891 5891 5896 5902 5906 5907 5906 5908 5908 5906 5904
5859 5858 5858 5858 5858 5859 5859 5859 5859 5860 5861 5863 5864 5866 5868 5869 5871 5872 5873 5874 5876 5877 5878 5878 5879 5881 5882 5883 5884 5887 5888 5887 5886 5885 5886 5888 5889 5895 5897 5897 5901 5902 5902 5900 5897
5857 5857 5856 5856 5856 5856 5857 5857 5857 5858 5859 5860 5861 5863 5864 5866 5869 5868 5869 5871 5872 5873 5875 5875 5876 5877 5878 5878 5880 5881 5882 5882 5881 5879 5881 5881 5885 5888 5891 5893 5896 5895 5895 5897 5894
5856 5855 5854 5854 5854 5854 5855 5855 5856 5856 5857 5858 5860 5861 5862 5863 5865 5865 5866 5868 5869 5870 5871 5872 5873 5873 5873 5874 5875 5875 5873 5876 5875 5874 5875 5875 5878 5880 5884 5889 5889 5888 5888 5888 5887
5854 5853 5852 5852 5852 5852 5852 5853 5854 5854 5855 5856 5857 5858 5860 5861 5862 5863 5864 5865 5866 5867 5868 5868 5869 5869 5869 5869 5869 5870 5868 5868 5868 5869 5868 5870 5871 5871 5878 5879 5882 5884 5878 5876 5879
5853 5852 5851 5851 5850 5850 5850 5851 5851 5852 5852 5853 5854 5855 5857 5859 5859 5860 5861 5862 5863 5864 5864 5865 5865 5865 5865 5865 5865 5863 5862 5861 5861 5862 5862 5863 5864 5866 5868 5870 5875 5880 5869 5871 5868
5852 5851 5850 5849 5849 5848 5848 5848 5849 5849 5850 5851 5852 5853 5854 5855 5856 5857 5857 5859 5859 5860 5860 5861 5861 5861 5861 5861 5860 5858 5857 5857 5855 5858 5858 5861 5865 5858 5860 5865 5870 5871 5859 5865 5863
5850 5849 5848 5848 5847 5846 5846 5846 5847 5847 5848 5848 5849 5850 5851 5852 5853 5853 5854 5855 5856 5857 5857 5857 5857 5858 5858 5857 5857 5855 5857 5856 5853 5855 5855 5856 5857 5853 5856 5859 5860 5857 5860 5860 5858
5847 5847 5846 5846 5845 5844 5845 5845 5845 5845 5845 5846 5847 5849 5848 5849 5849 5850 5851 5852 5852 5853 5854 5854 5854 5855 5855 5855 5856 5853 5853 5853 5854 5851 5851 5848 5850 5850 5851 5852 5851 5853 5855 5855 5853
5843 5844 5844 5843 5842 5841 5843 5843 5844 5844 5843 5844 5844 5845 5845 5846 5847 5847 5848 5848 5849 5850 5850 5851 5851 5851 5851 5851 5851 5851 5851 5851 5850 5847 5845 5844 5844 5845 5846 5845 5847 5846 5848 5850 5848
5838 5839 5840 5840 5839 5839 5839 5840 5840 5841 5840 5840 5841 5841 5842 5842 5843 5843 5844 5845 5845 5846 5847 5848 5847 5847 5847 5847 5847 5847 5848 5847 5845 5843 5842 5841 5839 5839 5840 5840 5842 5843 5843 5842 5842
5834 5834 5835 5836 5836 5836 5836 5837 5836 5837 5838 5838 5838 5838 5839 5840 5840 5840 5841 5841 5842 5843 5843 5844 5844 5843 5843 5843 5843 5844 5844 5844 5843 5841 5838 5838 5836 5835 5835 5835 5835 5837 5837 5836 5836
5829 5830 5830 5831 5832 5832 5832 5833 5833 5834 5835 5836 5836 5836 5836 5836 5837 5837 5838 5839 5839 5840 5840 5840 5840 5840 5840 5839 5840 5840 5839 5839 5837 5837 5837 5834 5838 5831 5830 5830 5830 5830 5831 5830 5829
5824 5825 5825 5825 5826 5827 5829 5829 5830 5831 5833 5833 5833 5833 5833 5835 5835 5835 5835 5835 5835 5836 5838 5835 5836 5836 5836 5835 5835 5834 5834 5833 5833 5833 5832 5831 5831 5822 5827 5826 5826 5825 5825 5825 5823
5819 5819 5820 5821 5821 5823 5823 5825 5827 5829 5828 5829 5829 5830 5830 5831 5831 5831 5831 5832 5832 5832 5832 5832 5832 5832 5831 5830 5830 5830 5829 5829 5828 5829 5829 5829 5826 5821 5820 5821 5821 5821 5820 5819 5818
5813 5812 5814 5814 5816 5818 5819 5821 5824 5823 5825 5826 5826 5827 5828 5828 5827 5827 5827 5828 5829 5830 5828 5827 5827 5826 5826 5826 5826 5826 5825 5827 5829 5828 5826 5820 5819 5814 5813 5813 5813 5814 5813 5811 5810
5807 5807 5808 5809 5810 5813 5815 5817 5818 5819 5820 5821 5821 5822 5825 5825 5825 5824 5823 5823 5823 5824 5824 5824 5822 5822 5822 5822 5822 5821 5821 5821 5821 5822 5822 5812 5811 5807 5805 5803 5802 5802 5803 5803 5801
5803 5803 5804 5804 5805 5807 5810 5811 5812 5814 5816 5816 5817 5818 5819 5821 5821 5821 5820 5820 5820 5820 5821 5820 5818 5817 5818 5818 5818 5816 5816 5813 5812 5810 5809 5808 5803 5801 5799 5797 5795 5794 5793 5793 5793
5801 5800 5799 5800 5801 5803 5804 5806 5807 5808 5811 5811 5812 5814 5815 5816 5817 5816 5815 5817 5816 5816 5815 5815 5814 5814 5814 5814 5813 5811 5810 5808 5807 5805 5804 5803 5797 5794 5793 5791 5789 5787 5786 5784 5783
5797 5796 5796 5796 5796 5797 5799 5800 5801 5803 5805 5807 5808 5809 5809 5810 5811 5812 5811 5812 5811 5811 5810 5809 5810 5808 5809 5809 5808 5806 5804 5803 5801 5799 5798 5798 5798 5787 5786 5784 5782 5781 5780 5778 5776
5790 5791 5791 5791 5793 5792 5793 5794 5796 5798 5799 5801 5802 5803 5803 5804 5804 5806 5806 5805 5805 5805 5805 5804 5804 5804 5804 5803 5802 5799 5798 5796 5794 5794 5790 5790 5789 5783 5781 5778 5776 5774 5772 5770 5767
5784 5784 5786 5786 5787 5787 5788 5789 5790 5792 5793 5794 5795 5796 5797 5798 5798 5799 5800 5801 5799 5799 5798 5799 5799 5799 5799 5799 5796 5793 5791 5790 5788 5787 5786 5784 5782 5777 5775 5772 5770 5767 5765 5762 5759
5778 5779 5779 5780 5780 5782 5782 5783 5784 5786 5787 5788 5789 5790 5791 5791 5792 5792 5793 5794 5794 5793 5792 5793 5793 5794 5794 5793 5791 5788 5786 5785 5783 5782 5780 5778 5773 5772 5769 5766 5763 5759 5756 5753 5749
5771 5772 5772 5773 5774 5775 5776 5777 5778 5780 5781 5782 5783 5784 5784 5785 5785 5786 5787 5788 5788 5787 5786 5787 5787 5788 5788 5787 5785 5783 5781 5779 5777 5776 5774 5772 5769 5765 5761 5758 5754 5750 5747 5742 5737
5764 5764 5765 5765 5767 5768 5768 5770 5772 5773 5774 5776 5777 5777 5778 5779 5779 5780 5780 5781 5781 5781 5781 5782 5782 5782 5782 5781 5779 5777 5775 5773 5772 5770 5767 5765 5760 5757 5754 5750 5746 5742 5737 5733 5728
5754 5756 5757 5758 5759 5760 5761 5762 5763 5766 5767 5769 5770 5770 5771 5772 5772 5773 5774 5775 5775 5775 5776 5777 5777 5777 5776 5775 5773 5772 5769 5767 5765 5763 5761 5757 5754 5750 5746 5742 5738 5733 5729 5725 5720